Ketchikan, AK

4:26 AM AKDT on August 15, 2018 (GMT -0800)
Ketchikan International

Weather History for PAKT - April, 2018

Change the Weather History Date:

Saturday, April 28, 2018

  Actual Average Record
Temperature  
Mean Temperature 47 °F -  
Max Temperature 55 °F 52 °F 75 °F (1976)
Min Temperature 41 °F 37 °F 23 °F (1971)
Degree Days  
Heating Degree Days 18    
Moisture  
Dew Point 30 °F    
Average Humidity 52    
Maximum Humidity 71    
Minimum Humidity 33    
Precipitation  
Precipitation 0.00 in - - ()
Sea Level Pressure  
Sea Level Pressure 30.07 in    
Wind  
Wind Speed 12 mph (NW)    
Max Wind Speed 17 mph    
Max Gust Speed 24 mph    
Visibility 10 miles    
Events      
Averages and records for this station are not official NWS values.
T = Trace of Precipitation, MM = Missing Value Source: NWS Daily Summary

Daily Weather History Graph

Daily Weather History Graph

Search for Another Location

Airport or City:

Astronomy

Apr. 28, 2018 Rise Set
Actual Time 5:11 AM AKDT 8:18 PM AKDT
Civil Twilight 4:29 AM AKDT 9:01 PM AKDT
Nautical Twilight 3:32 AM AKDT 9:58 PM AKDT
Astronomical Twilight 2:12 AM AKDT 11:21 PM AKDT
Moon 6:44 PM AKDT (4/28) 5:21 AM AKDT (4/28)
Length of Visible Light 16h 32m
Length of Day
15h 06m
Waxing Gibbous, 98% of the Moon is Illuminated
Apr 28
Waxing Gibbous
Apr 29
Full
May 7
Last Quarter
May 15
New
May 21
First Quarter

Hourly Weather History & Observations

Time (AKDT) Temp. Windchill Dew Point Humidity Pressure Visibility Wind Dir Wind Speed Gust Speed Precip Events Conditions
12:53 AM 45.0 °F 39.3 °F 35.1 °F 68% 29.98 in 10.0 mi NW 11.5 mph - N/A   Clear
1:53 AM 44.1 °F 39.0 °F 34.0 °F 68% 29.99 in 10.0 mi WNW 9.2 mph - N/A   Clear
2:53 AM 43.0 °F 37.2 °F 32.0 °F 65% 30.00 in 10.0 mi NW 10.4 mph - N/A   Clear
3:53 AM 42.1 °F 35.7 °F 32.0 °F 67% 30.02 in 10.0 mi NW 11.5 mph - N/A   Clear
4:53 AM 42.1 °F 35.7 °F 30.0 °F 62% 30.03 in 10.0 mi NW 11.5 mph 19.6 mph N/A   Clear
5:53 AM 41.0 °F 35.2 °F 30.9 °F 67% 30.04 in 10.0 mi NW 9.2 mph 20.7 mph N/A   Clear
6:08 AM 42.1 °F 35.2 °F 30.9 °F 65% 30.05 in 10.0 mi NW 12.7 mph - N/A   Partly Cloudy
6:53 AM 42.8 °F 37.5 °F 30.2 °F 61% 30.06 in 10.0 mi NW 9.2 mph - N/A   Partly Cloudy
7:53 AM 44.6 °F 37.8 °F 30.2 °F 57% 30.08 in 10.0 mi NW 15.0 mph 23.0 mph N/A   Partly Cloudy
8:53 AM 46.4 °F 40.4 °F 30.2 °F 53% 30.08 in 10.0 mi NW 13.8 mph 19.6 mph N/A   Partly Cloudy
9:53 AM 48.2 °F - 28.4 °F 46% 30.09 in 10.0 mi WNW 11.5 mph 20.7 mph N/A   Partly Cloudy
10:53 AM 48.2 °F - 28.4 °F 46% 30.08 in 10.0 mi NW 15.0 mph 20.7 mph N/A   Partly Cloudy
11:53 AM 50.0 °F - 26.6 °F 40% 30.09 in 10.0 mi NW 12.7 mph 24.2 mph N/A   Partly Cloudy
12:53 PM 51.8 °F - 26.6 °F 38% 30.09 in 10.0 mi NW 16.1 mph 24.2 mph N/A   Partly Cloudy
1:53 PM 53.6 °F - 26.6 °F 35% 30.09 in 10.0 mi NW 17.3 mph 23.0 mph N/A   Partly Cloudy
2:53 PM 53.6 °F - 24.8 °F 33% 30.09 in 10.0 mi NW 13.8 mph 23.0 mph N/A   Clear
3:53 PM 53.6 °F - 24.8 °F 33% 30.09 in 10.0 mi NNW 15.0 mph - N/A   Clear
4:53 PM 53.6 °F - 24.8 °F 33% 30.09 in 10.0 mi NW 17.3 mph - N/A   Clear
5:53 PM 53.6 °F - 26.6 °F 35% 30.09 in 10.0 mi NW 13.8 mph - N/A   Clear
6:53 PM 51.8 °F - 28.4 °F 41% 30.08 in 10.0 mi NNW 15.0 mph - N/A   Clear
7:53 PM 48.2 °F - 28.4 °F 46% 30.09 in 10.0 mi NW 9.2 mph - N/A   Clear
8:53 PM 46.4 °F 42.4 °F 28.4 °F 50% 30.11 in 10.0 mi WNW 8.1 mph - N/A   Clear
9:53 PM 46.9 °F - 35.1 °F 63% 30.12 in 10.0 mi NNW 11.5 mph - N/A   Clear
10:53 PM 46.0 °F 41.4 °F 36.0 °F 68% 30.13 in 10.0 mi North 9.2 mph - N/A   Clear
11:53 PM 45.0 °F 39.7 °F 36.0 °F 71% 30.14 in 10.0 mi NNW 10.4 mph - N/A   Clear